This is the latest recevied weather packets stored in our database for station/object N1ORT. If no packets are shown the sender has not sent any weather packets the latest 1 day(s).
| Time | Temp. | Humidity | Pressure | Rain* | Wind** | Luminosity | Snow |
|---|---|---|---|---|---|---|---|
| 1778052289 | 17.22° C | 72% | 1007.4 hPa | 0 mm | 0.89 m/s, 24° | 0 W/m² | - |
| 1778051987 | 17.22° C | 72% | 1007.3 hPa | 0 mm | 0.89 m/s, 70° | 0 W/m² | - |
| 1778051685 | 17.22° C | 72% | 1007.5 hPa | 0 mm | 1.79 m/s, 256° | 0 W/m² | - |
| 1778051382 | 17.22° C | 71% | 1007.3 hPa | 0 mm | 1.34 m/s, 34° | 0 W/m² | - |
| 1778051079 | 17.22° C | 72% | 1007.2 hPa | 0 mm | 0.89 m/s, 87° | 0 W/m² | - |
| 1778050776 | 17.22° C | 71% | 1007.1 hPa | 0 mm | 0.45 m/s, 249° | 0 W/m² | - |
| 1778050474 | 17.22° C | 70% | 1007.2 hPa | 0 mm | 0.89 m/s, 243° | 0 W/m² | - |
| 1778050170 | 17.22° C | 70% | 1007.2 hPa | 0 mm | 0 m/s | 0 W/m² | - |
| 1778049866 | 17.22° C | 70% | 1007.3 hPa | 0 mm | 0.89 m/s, 271° | 0 W/m² | - |
| 1778049563 | 17.22° C | 70% | 1007.3 hPa | 0 mm | 1.79 m/s, 23° | 0 W/m² | - |
| 1778049260 | 17.22° C | 70% | 1007.1 hPa | 0 mm | 0.45 m/s, 242° | 0 W/m² | - |
| 1778048958 | 17.22° C | 70% | 1007.1 hPa | 0 mm | 0.89 m/s, 238° | 0 W/m² | - |
| 1778048656 | 17.22° C | 69% | 1007.1 hPa | 0 mm | 0.89 m/s, 39° | 0 W/m² | - |
| 1778048352 | 17.22° C | 69% | 1007.2 hPa | 0 mm | 0.89 m/s, 0° | 0 W/m² | - |
| 1778048049 | 17.22° C | 68% | 1007 hPa | 0 mm | 1.34 m/s, 36° | 0 W/m² | - |
| 1778047747 | 17.22° C | 68% | 1006.8 hPa | 0 mm | 0.89 m/s, 75° | 0 W/m² | - |
| 1778047444 | 17.22° C | 68% | 1007.1 hPa | 0 mm | 1.34 m/s, 203° | 0 W/m² | - |
| 1778047141 | 17.22° C | 68% | 1007.3 hPa | 0 mm | 0.89 m/s, 3° | 0 W/m² | - |
| 1778046838 | 17.22° C | 67% | 1007.1 hPa | 0 mm | 1.34 m/s, 322° | 0 W/m² | - |
| 1778046535 | 17.22° C | 68% | 1007.1 hPa | 0 mm | 1.34 m/s, 40° | 0 W/m² | - |
| 1778046232 | 17.22° C | 68% | 1007.3 hPa | 0 mm | 1.34 m/s, 99° | 0 W/m² | - |
| 1778045928 | 17.22° C | 68% | 1007.3 hPa | 0 mm | 1.34 m/s, 234° | 0 W/m² | - |
| 1778045627 | 17.22° C | 68% | 1007.2 hPa | 0 mm | 0.89 m/s, 82° | 0 W/m² | - |
| 1778045325 | 17.22° C | 68% | 1007.5 hPa | 0 mm | 1.34 m/s, 87° | 0 W/m² | - |
| 1778045023 | 17.22° C | 68% | 1007.3 hPa | 0 mm | 0.89 m/s, 47° | 0 W/m² | - |
* Rain latest hour (hover to see other rain measurements)
** Current wind speed in m/s (hover to see current wind gust speed)